Tulcea, Romania

4:47 AM EEST on June 24, 2017 (GMT +0300)
Cataloi

Weather History for LRTC - March, 2014

Change the Weather History Date:

Saturday, March 29, 2014

  Actual Average Record
Temperature  
Mean Temperature 42 °F -  
Max Temperature 52 °F 59 °F 73 °F (2017)
Min Temperature 28 °F 43 °F 28 °F (2014)
Degree Days  
Heating Degree Days 23    
Moisture  
Dew Point 27 °F    
Average Humidity 47    
Maximum Humidity 87    
Minimum Humidity 11    
Precipitation  
Precipitation 0.00 in - - ()
Sea Level Pressure  
Sea Level Pressure 30.09 in    
Wind  
Wind Speed 11 mph ()    
Max Wind Speed 24 mph    
Max Gust Speed 38 mph    
Visibility 5.8 miles    
Events      
Averages and records for this station are not official NWS values.
T = Trace of Precipitation, MM = Missing Value Source: Averaged Metar Reports

Daily Weather History Graph

Daily Weather History Graph

Search for Another Location

Airport or City:

Trip Planner

Search our weather history database for the weather conditions in past years. The results will help you decide how hot, cold, wet, or windy it might be!

Date:

Astronomy

Mar. 29, 2014 Rise Set
Actual Time 5:51 AM EET 6:28 PM EET
Civil Twilight 5:22 AM EET 6:58 PM EET
Nautical Twilight 4:47 AM EET 7:33 PM EET
Astronomical Twilight 4:11 AM EET 8:09 PM EET
Moon 4:52 AM EET (3/29) 5:08 PM EET (3/29)
Length of Visible Light 13h 36m
Length of Day
12h 36m
Waning Crescent, 3% of the Moon is Illuminated
Mar 29
Waning Crescent
Mar 30
New
Apr 7
First Quarter
Apr 15
Full
Apr 22
Last Quarter

Hourly Weather History & Observations

Time (EET) Temp. Windchill Dew Point Humidity Pressure Visibility Wind Dir Wind Speed Gust Speed Precip Events Conditions
12:00 AM 54 °F - 46 °F 68% 29.92 in 6 mi NW 4.5 mph - -   Mostly Cloudy
12:00 AM 53.6 °F - 46.4 °F 77% 29.92 in 4.3 mi NW 16.1 mph - N/A   Overcast
1:00 AM 53 °F - 43 °F 61% 29.93 in 6 mi North 6.7 mph - -   Mostly Cloudy
1:00 AM 50.0 °F - 42.8 °F 76% 29.92 in 5.6 mi NNW 11.5 mph - N/A   Partly Cloudy
2:00 AM 49 °F - 42 °F 68% 29.94 in 6 mi NNW 4.5 mph - -   Partly Cloudy
2:00 AM 46.4 °F 40.4 °F 42.8 °F 87% 29.92 in 4.3 mi NW 13.8 mph - N/A   Unknown
3:00 AM 47 °F - 39 °F 66% 29.94 in - NW 4.5 mph - -  
3:00 AM 42.8 °F 38.6 °F 39.2 °F 87% 29.92 in 4.3 mi NNW 6.9 mph - N/A   Unknown
4:00 AM 46 °F - 38 °F 65% 29.93 in - NNW 4.5 mph - -  
4:00 AM 41.0 °F 36.4 °F 37.4 °F 87% 29.92 in 3.7 mi NNW 6.9 mph - N/A   Unknown
5:00 AM 45 °F - 38 °F 67% 29.94 in - NNW 4.5 mph - -  
5:00 AM 41.0 °F 38.0 °F 37.4 °F 87% 29.92 in 5.0 mi North 4.6 mph - N/A   Unknown
5:30 AM 41.0 °F 34.3 °F 37.4 °F 87% 29.95 in 5.0 mi North 11.5 mph - N/A   Unknown
6:00 AM 45 °F - 36 °F 61% 29.95 in - North 6.7 mph - -  
6:00 AM 42.8 °F 35.8 °F 37.4 °F 81% 29.95 in 6.2 mi NNW 13.8 mph - N/A   Unknown
6:30 AM 42.8 °F 35.8 °F 37.4 °F 81% 29.98 in 5.6 mi NNW 13.8 mph - N/A   Unknown
7:00 AM 44 °F - 35 °F 60% 29.98 in 6 mi North 8.9 mph - -   Clear
7:00 AM 44.6 °F 37.4 °F 35.6 °F 71% 29.98 in 6.2 mi North 16.1 mph - N/A   Unknown
7:30 AM 46.4 °F 39.8 °F 33.8 °F 62% 30.01 in 6.2 mi North 16.1 mph - N/A   Unknown
8:00 AM 45 °F - 32 °F 49% 30.01 in 6 mi NNE 8.9 mph - -  
8:00 AM 46.4 °F 39.0 °F 32.0 °F 57% 30.01 in - North 19.6 mph - N/A   Clear
8:30 AM 48.2 °F - 32.0 °F 54% 30.04 in - North 19.6 mph - N/A   Clear
9:00 AM 47 °F - 29 °F 36% 30.04 in 6 mi NE 11.2 mph - -  
9:00 AM 48.2 °F - 30.2 °F 50% 30.06 in - North 21.9 mph - N/A   Clear
9:30 AM 50.0 °F - 28.4 °F 43% 30.06 in - NNE 19.6 mph - N/A   Clear
10:00 AM 49 °F - 27 °F 29% 30.07 in 6 mi NNE 11.2 mph - -  
10:00 AM 50.0 °F - 28.4 °F 43% 30.06 in - North 21.9 mph - N/A   Clear
10:30 AM 51.8 °F - 26.6 °F 38% 30.06 in - NNE 21.9 mph - N/A   Clear
11:00 AM 50 °F - 25 °F 25% 30.09 in 6 mi NNE 15.7 mph - -  
11:00 AM 51.8 °F - 26.6 °F 38% 30.09 in 6.2 mi North 24.2 mph - N/A   Partly Cloudy
11:30 AM 51.8 °F - 26.6 °F 38% 30.09 in 6.2 mi North 21.9 mph - N/A   Scattered Clouds
12:00 PM 51 °F - 22 °F 20% 30.12 in 6 mi NNE 13.4 mph - -   Scattered Clouds
12:00 PM 51.8 °F - 24.8 °F 35% 30.09 in 6.2 mi North 21.9 mph 38.0 mph N/A   Partly Cloudy
12:30 PM 51.8 °F - 23.0 °F 33% 30.12 in - North 19.6 mph 31.1 mph N/A   Clear
1:00 PM 51 °F - 21 °F 18% 30.13 in 6 mi NNE 17.9 mph - -   Scattered Clouds
1:00 PM 51.8 °F - 23.0 °F 33% 30.12 in - North 21.9 mph 33.4 mph N/A   Clear
1:30 PM 51.8 °F - 24.8 °F 35% 30.12 in - North 19.6 mph - N/A   Clear
2:00 PM 51 °F - 19 °F 17% 30.15 in 6 mi NNE 13.4 mph - -   Scattered Clouds
2:00 PM 51.8 °F - 21.2 °F 30% 30.12 in - North 21.9 mph - N/A   Clear
2:30 PM 51.8 °F - 19.4 °F 28% 30.15 in - NNE 19.6 mph 31.1 mph N/A   Clear
3:00 PM 51 °F - 16 °F 13% 30.16 in 6 mi NNE 11.2 mph - -  
3:00 PM 51.8 °F - 17.6 °F 26% 30.15 in - NNE 21.9 mph - N/A   Clear
3:30 PM 50.0 °F - 21.2 °F 32% 30.15 in - NNE 19.6 mph - N/A   Clear
4:00 PM 51 °F - 15 °F 13% 30.18 in 6 mi NE 13.4 mph - -  
4:00 PM 50.0 °F - 17.6 °F 28% 30.15 in - North 18.4 mph - N/A   Clear
4:30 PM 50.0 °F - 15.8 °F 26% 30.18 in - North 18.4 mph - N/A   Clear
5:00 PM 50 °F - 12 °F 11% 30.19 in 6 mi NE 11.2 mph - -  
5:00 PM 48.2 °F - 17.6 °F 30% 30.18 in - NNE 13.8 mph - N/A   Clear
5:30 PM 48.2 °F - 14.0 °F 25% 30.18 in - NNE 13.8 mph - N/A   Clear
6:00 PM 48 °F - 12 °F 12% 30.20 in 6 mi NE 8.9 mph - -  
6:00 PM 46.4 °F 41.1 °F 15.8 °F 29% 30.18 in - NNE 11.5 mph - N/A   Clear
6:30 PM 41.0 °F 35.2 °F 21.2 °F 45% 30.21 in - NNE 9.2 mph - N/A   Clear
7:00 PM 46 °F - 15 °F 16% 30.21 in 6 mi NNE 4.5 mph - -  
7:00 PM 41.0 °F 36.4 °F 19.4 °F 42% 30.21 in - NNE 6.9 mph - N/A   Clear
7:30 PM 41.0 °F 36.4 °F 19.4 °F 42% 30.21 in - North 6.9 mph - N/A   Clear
8:00 PM 43 °F - 17 °F 22% 30.23 in 6 mi North 2.2 mph - -  
8:00 PM 35.6 °F - 19.4 °F 52% 30.24 in 6.2 mi North 2.3 mph - N/A   Unknown
8:30 PM 35.6 °F - 21.2 °F 56% 30.24 in 6.2 mi Variable 2.3 mph - N/A   Unknown
9:00 PM 40 °F - 22 °F 36% 30.25 in 6 mi North 2.2 mph - -  
9:00 PM 33.8 °F - 21.2 °F 60% 30.24 in 6.2 mi Variable 2.3 mph - N/A   Unknown
10:00 PM 36 °F - 25 °F 52% 30.25 in 6 mi NW 2.2 mph - -  
10:00 PM 32.0 °F 27.5 °F 23.0 °F 69% 30.24 in 6.2 mi NNE 4.6 mph - N/A   Unknown
11:00 PM 35 °F - 28 °F 66% 30.26 in 6 mi West 2.2 mph - -  
11:00 PM 28.4 °F 23.3 °F 23.0 °F 80% 30.27 in 6.2 mi North 4.6 mph - N/A   Unknown